This is the latest recevied weather packets stored in our database for station/object K2CAT. If no packets are shown the sender has not sent any weather packets the latest 10 day(s).
| Time | Temp. | Humidity | Pressure | Rain* | Wind** | Luminosity | Snow |
|---|---|---|---|---|---|---|---|
| 1777728832 | 10° C | 81% | 1012.6 hPa | 0 mm | - | 114 W/m² | - |
| 1777728529 | 10° C | 83% | 1012.5 hPa | 0 mm | - | 158 W/m² | - |
| 1777728226 | 9.44° C | 80% | 1012.8 hPa | 0 mm | - | 155 W/m² | - |
| 1777727923 | 9.44° C | 82% | 1012.6 hPa | 0 mm | - | 151 W/m² | - |
| 1777727620 | 10° C | 84% | 1012.7 hPa | 0 mm | - | 162 W/m² | - |
| 1777727317 | 9.44° C | 85% | 1012.8 hPa | 0 mm | - | 124 W/m² | - |
| 1777727015 | 9.44° C | 86% | 1012.4 hPa | 0 mm | - | 141 W/m² | - |
| 1777726712 | 9.44° C | 88% | 1012.5 hPa | 0 mm | - | 149 W/m² | - |
| 1777726409 | 9.44° C | 87% | 1012.6 hPa | 0 mm | - | 160 W/m² | - |
| 1777726106 | 9.44° C | 91% | 1012.6 hPa | 0 mm | - | 114 W/m² | - |
| 1777725803 | 9.44° C | 93% | 1012.6 hPa | 0 mm | - | 110 W/m² | - |
| 1777725500 | 8.89° C | 95% | 1012.6 hPa | 0 mm | - | 109 W/m² | - |
| 1777725198 | 8.89° C | 97% | 1012.5 hPa | 0 mm | - | 105 W/m² | - |
| 1777724895 | 8.89° C | 98% | 1012.4 hPa | 0 mm | - | 97 W/m² | - |
| 1777724590 | 8.89° C | 98% | 1012.5 hPa | 0 mm | - | 74 W/m² | - |
| 1777724289 | 8.89° C | 98% | 1012.4 hPa | 0 mm | - | 59 W/m² | - |
| 1777723986 | 8.89° C | 98% | 1012.5 hPa | 0 mm | - | 62 W/m² | - |
| 1777723683 | 8.89° C | 98% | 1012.5 hPa | 0 mm | - | 44 W/m² | - |
| 1777723379 | 8.89° C | 98% | 1012.4 hPa | 0 mm | - | 42 W/m² | - |
| 1777723077 | 8.89° C | 98% | 1012.4 hPa | 0 mm | - | 33 W/m² | - |
| 1777722774 | 8.89° C | 98% | 1012.4 hPa | 0 mm | - | 36 W/m² | - |
| 1777722470 | 8.89° C | 99% | 1012.4 hPa | 0 mm | - | 34 W/m² | - |
| 1777722167 | 8.89° C | 99% | 1012.4 hPa | 0 mm | - | 24 W/m² | - |
| 1777721864 | 8.89° C | 99% | 1012.4 hPa | 0 mm | - | 31 W/m² | - |
| 1777721562 | 8.89° C | 99% | 1012.2 hPa | 0 mm | - | 22 W/m² | - |
* Rain latest hour (hover to see other rain measurements)
** Current wind speed in m/s (hover to see current wind gust speed)